Location: Anaheim
(33.8350°N, 117.9140°W)
Time: 00:57:16
(UTC-08:00)

Amateur Radio Satellites - All Passes

Search period start: 27 February 2017 00:27
Search period end: 28 February 2017 00:27
Location: Anaheim, 33.8350°N, 117.9140°W

Satellite Date Start Highest point End Downlink Frequencies (MHz)
Time Altitude Azimuth
VELOX 1 27 Feb 00:33:15 00:35:35 14° 266° (W) 00:37:56 145.980
PCSat 27 Feb 00:36:58 00:42:12 46° 60° (ENE) 00:47:23 145.827
NO-84 27 Feb 00:45:59 00:49:37 27° 235° (SW) 00:53:22 435.350 FM
Gurwin Techsat 1B 27 Feb 00:50:07 00:54:04 21° 95° (E) 00:58:02 435.225
DUCHIFAT 1 27 Feb 01:03:05 01:04:27 11° 294° (WNW) 01:05:50 145.980
ITUPSAT 1 27 Feb 01:11:30 01:15:28 26° 69° (ENE) 01:19:27 437.325
BEESAT 27 Feb 01:16:36 01:20:45 30° 70° (ENE) 01:24:55 436.000
MOZHAYETS 4 27 Feb 01:23:55 01:25:13 11° 65° (ENE) 01:26:32
Oscar 19 27 Feb 01:28:42 01:33:50 82° 285° (WNW) 01:38:57 437.125/150
RS-15 27 Feb 01:37:10 01:49:19 60° 56° (NE) 02:00:51 29.354- 29.394
ITAMSAT 1 27 Feb 02:07:40 02:11:25 20° 95° (E) 02:15:07 435.822/435.867
SRMSAT 27 Feb 02:12:24 02:16:06 17° 190° (S) 02:19:49 437.500
PCSat 27 Feb 02:21:24 02:25:10 19° 255° (WSW) 02:28:55 145.827
AO-85 27 Feb 02:21:51 02:25:27 22° 112° (ESE) 02:28:53 145.980
Gurwin Techsat 1B 27 Feb 02:29:10 02:34:06 39° 289° (WNW) 02:39:00 435.225
AO-7 27 Feb 02:37:19 02:44:39 34° 99° (E) 02:51:53 .
ITUPSAT 1 27 Feb 02:49:07 02:53:09 27° 263° (W) 02:57:13 437.325
BEESAT 27 Feb 02:54:43 02:58:28 23° 264° (W) 03:02:14 436.000
MOZHAYETS 4 27 Feb 02:57:12 03:01:47 62° 259° (W) 03:06:25
KKS-1 27 Feb 03:14:08 03:18:21 46° 73° (ENE) 03:22:36 437.445
M-CUBED/EXP-1 PRIME 27 Feb 03:32:25 03:34:22 15° 66° (ENE) 03:36:19 437.505
STARS 27 Feb 03:42:44 03:46:49 41° 73° (ENE) 03:50:56 437.465
ITAMSAT 1 27 Feb 03:46:05 03:50:58 41° 289° (WNW) 03:55:49 435.822/435.867
RS-15 27 Feb 03:50:35 04:01:05 36° 255° (WSW) 04:11:12 29.354- 29.394
BEESAT 3 27 Feb 04:00:58 04:02:01 11° 107° (ESE) 04:03:04 437.485
AO-85 27 Feb 04:01:37 04:05:42 31° 304° (WNW) 04:09:32 145.980
CUBESAT XI-V 27 Feb 04:01:48 04:06:29 85° 255° (WSW) 04:11:09 437.345
AO-7 27 Feb 04:29:39 04:37:26 47° 294° (WNW) 04:45:13 .
BEESAT 2 27 Feb 04:42:45 04:44:42 13° 108° (ESE) 04:46:40 435.950
KKS-1 27 Feb 04:53:15 04:55:06 12° 267° (W) 04:56:57 437.445
Tancredo 1 27 Feb 05:05:57 05:06:08 10° 125° (SE) 05:06:20 437.200
M-CUBED/EXP-1 PRIME 27 Feb 05:06:14 05:08:43 20° 258° (WSW) 05:11:10 437.505
CUTE-I 27 Feb 05:09:29 05:13:16 19° 94° (E) 05:17:00 437.470
SO-50 27 Feb 05:15:17 05:16:57 12° 47° (NE) 05:18:36 436.795
STRAND 1 27 Feb 05:18:00 05:20:55 15° 65° (ENE) 05:23:51 437.568
STARS 27 Feb 05:21:05 05:23:18 14° 266° (W) 05:25:31 437.465
KAITUO 1B 27 Feb 05:30:53 05:34:00 24° 96° (E) 05:37:04 145.475/437.950
BEESAT 3 27 Feb 05:35:25 05:39:09 44° 302° (WNW) 05:42:56 437.485
XW-2F 27 Feb 05:38:45 05:42:20 38° 99° (E) 05:45:51 145.980 - 146.000
XW-2D 27 Feb 05:44:35 05:48:18 50° 100° (E) 05:51:58 145.860 - 145.880
XW-2B 27 Feb 05:49:39 05:53:25 57° 100° (E) 05:57:08 145.730 - 145.750
XW-2C 27 Feb 05:58:21 06:02:10 79° 102° (ESE) 06:05:56 145.795 - 145.815
NUDT-PHONESAT 27 Feb 06:02:44 06:06:29 71° 101° (E) 06:10:10 437.300
DOVE 4 27 Feb 06:10:33 06:15:23 72° 284° (WNW) 06:20:28 437.250
LilacSat-2 27 Feb 06:17:33 06:21:17 52° 285° (WNW) 06:24:59 437.200
ISS 27 Feb 06:18:20 06:21:36 78° 137° (SE) 06:24:54 437.550
BEESAT 2 27 Feb 06:18:25 06:22:05 37° 302° (WNW) 06:25:50 435.950
Tancredo 1 27 Feb 06:38:49 06:42:00 54° 319° (NW) 06:45:12 437.200
XW-2A 27 Feb 06:42:32 06:45:42 33° 98° (E) 06:48:50 145.665 - 145.685
HO-68 27 Feb 06:45:56 06:52:21 35° 98° (E) 06:58:44 435.675
SEEDS 27 Feb 06:47:52 06:50:34 17° 94° (E) 06:53:14 437.485
CUTE-I 27 Feb 06:48:21 06:53:26 44° 288° (WNW) 06:58:29 437.470
SO-50 27 Feb 06:53:25 06:57:53 72° 243° (WSW) 07:02:19 436.795
STRAND 1 27 Feb 06:54:34 06:59:35 54° 260° (W) 07:04:38 437.568
KAITUO 1B 27 Feb 07:05:22 07:07:47 17° 290° (WNW) 07:10:12 145.475/437.950
UWE-3 27 Feb 07:08:32 07:10:31 13° 92° (E) 07:12:30 435.000/436.395/437.385
XW-2F 27 Feb 07:14:54 07:16:03 11° 292° (WNW) 07:17:13 145.980 - 146.000
ZACube-1 27 Feb 07:25:48 07:26:33 10° 91° (E) 07:27:17 437.345
CUTE 1.7 + AOD 2 27 Feb 07:29:01 07:33:14 89° 297° (WNW) 07:37:26 437.475
PRISM 27 Feb 07:31:27 07:32:57 12° 67° (ENE) 07:34:27 437.425
O/OREOS (USA 219) 27 Feb 07:32:53 07:37:02 33° 65° (ENE) 07:41:10 437.305
ISS 27 Feb 07:56:54 07:58:26 13° 332° (NNW) 07:59:56 437.550
YUBILEINY 27 Feb 08:03:44 08:06:14 11° 77° (ENE) 08:08:43 435.215
AAUSAT CUBESAT 2 27 Feb 08:04:54 08:09:00 73° 102° (ESE) 08:13:05 437.432
CUBEBUG 2 27 Feb 08:09:47 08:14:32 73° 284° (WNW) 08:19:11 437.445
AO-73 27 Feb 08:10:00 08:14:05 33° 97° (E) 08:18:04 145.935
Oscar 11 27 Feb 08:13:59 08:17:49 31° 97° (E) 08:21:38 .
XW-2A 27 Feb 08:17:27 08:18:06 10° 292° (WNW) 08:18:43 145.665 - 145.685
TIGRISAT 27 Feb 08:19:45 08:22:43 18° 68° (ENE) 08:25:46 435.000
UNISAT 6 27 Feb 08:19:54 08:23:06 19° 68° (ENE) 08:26:20 437.425
SEEDS 27 Feb 08:22:37 08:26:16 30° 287° (WNW) 08:29:53 437.485
HO-68 27 Feb 08:33:32 08:39:58 38° 293° (WNW) 08:46:24 435.675
UWE-3 27 Feb 08:42:43 08:47:13 50° 286° (WNW) 08:51:36 435.000/436.395/437.385
ZACube-1 27 Feb 08:58:41 09:03:08 56° 285° (WNW) 09:07:28 437.345
PRISM 27 Feb 09:03:55 09:07:49 44° 260° (W) 09:11:43 437.425
O/OREOS (USA 219) 27 Feb 09:12:57 09:16:08 19° 260° (W) 09:19:21 437.305
DELFI C3 27 Feb 09:17:51 09:21:42 53° 100° (E) 09:25:31 145.870
FO-29 27 Feb 09:27:32 09:34:26 57° 71° (ENE) 09:41:58 435.910
AO-73 27 Feb 09:46:56 09:50:01 18° 292° (WNW) 09:53:02 145.935
Oscar 11 27 Feb 09:50:45 09:53:41 18° 291° (WNW) 09:56:37 .
YUBILEINY 27 Feb 09:52:42 10:01:30 79° 93° (E) 10:10:18 435.215
TIGRISAT 27 Feb 09:54:56 09:59:04 36° 262° (W) 10:03:19 435.000
UNISAT 6 27 Feb 09:55:27 09:59:30 33° 263° (W) 10:03:39 437.425
DUCHIFAT 1 27 Feb 10:13:34 10:16:50 22° 70° (ENE) 10:20:07 145.980
EO-79 27 Feb 10:26:21 10:30:16 38° 73° (ENE) 10:34:13 145.935-145.965
ESTCUBE 1 27 Feb 10:33:45 10:37:20 23° 96° (E) 10:40:55 437.505/2401.250
NANOSAT C BR1 27 Feb 10:41:38 10:45:45 55° 75° (ENE) 10:49:53 145.865
POLYITAN 1 27 Feb 10:44:18 10:48:29 66° 76° (ENE) 10:52:43 437.675
QB50P2 27 Feb 10:47:21 10:51:34 79° 77° (ENE) 10:55:50 145.880/145.840
AIST 2D 27 Feb 10:51:21 10:54:47 48° 261° (W) 10:58:15 435.315
VELOX 1 27 Feb 10:52:04 10:52:16 10° 92° (E) 10:52:28 145.980
LO-87 27 Feb 10:53:19 10:56:55 81° 283° (WNW) 11:00:32 145.935 - 145.965
BUGSAT 1 27 Feb 11:01:01 11:04:22 25° 71° (ENE) 11:07:44 437.445
FO-29 27 Feb 11:14:13 11:19:47 25° 268° (W) 11:25:45 435.910
DUCHIFAT 1 27 Feb 11:48:57 11:52:21 24° 264° (W) 11:55:46 145.980
YUBILEINY 27 Feb 11:53:30 11:59:10 18° 292° (WNW) 12:04:52 435.215
EO-79 27 Feb 12:04:02 12:06:09 14° 267° (W) 12:08:17 145.935-145.965
Gurwin Techsat 1B 27 Feb 12:07:29 12:11:39 24° 68° (ENE) 12:15:49 435.225
DX 1 27 Feb 12:08:30 12:12:30 35° 99° (E) 12:16:30 434.975-435.025
ESTCUBE 1 27 Feb 12:10:22 12:14:02 25° 290° (WNW) 12:17:42 437.505/2401.250
SPROUT 27 Feb 12:14:40 12:19:00 89° 267° (W) 12:23:18 437.525
UKube-1 27 Feb 12:15:55 12:19:43 30° 98° (E) 12:23:30 .
VELOX 1 27 Feb 12:24:39 12:29:00 56° 285° (WNW) 12:33:19 145.980
AO-85 27 Feb 12:35:52 12:39:46 70° 61° (ENE) 12:43:47 145.980
BUGSAT 1 27 Feb 12:36:44 12:39:39 19° 265° (W) 12:42:38 437.445
Oscar 19 27 Feb 12:41:29 12:46:38 84° 257° (WSW) 12:51:48 437.125/150
50 SAT 27 Feb 12:45:16 12:48:25 33° 286° (WNW) 12:51:33 437.505
ISS 27 Feb 12:49:52 12:52:07 17° 32° (NNE) 12:54:21 437.550
Tancredo 1 27 Feb 13:09:08 13:11:51 25° 36° (NE) 13:14:33 437.200
ITAMSAT 1 27 Feb 13:22:01 13:25:52 21° 67° (ENE) 13:29:43 435.822/435.867
AO-7 27 Feb 13:32:14 13:39:30 34° 62° (ENE) 13:46:44 .
DX 1 27 Feb 13:45:37 13:48:22 17° 292° (WNW) 13:51:07 434.975-435.025
Gurwin Techsat 1B 27 Feb 13:46:30 13:51:20 36° 262° (W) 13:56:12 435.225
UKube-1 27 Feb 13:52:28 13:55:30 19° 291° (WNW) 13:58:33 .
BEESAT 3 27 Feb 13:55:54 13:59:23 28° 55° (NE) 14:02:51 437.485
NO-84 27 Feb 14:25:30 14:27:08 14° 121° (ESE) 14:28:50 435.350 FM
ISS 27 Feb 14:25:35 14:28:44 43° 227° (SW) 14:31:50 437.550
BEESAT 2 27 Feb 14:39:32 14:43:14 33° 57° (ENE) 14:46:54 435.950
Tancredo 1 27 Feb 14:45:24 14:48:01 23° 231° (SW) 14:50:38 437.200
ITUPSAT 1 27 Feb 14:52:32 14:57:19 77° 285° (WNW) 15:02:05 437.325
MOZHAYETS 4 27 Feb 14:56:13 15:00:32 40° 98° (E) 15:04:49
BEESAT 27 Feb 14:57:27 15:02:11 66° 285° (WNW) 15:06:54 436.000
ITAMSAT 1 27 Feb 15:00:10 15:05:00 39° 261° (W) 15:09:53 435.822/435.867
KKS-1 27 Feb 15:10:51 15:12:37 12° 93° (E) 15:14:23 437.445
PCSat 27 Feb 15:14:15 15:19:39 86° 294° (WNW) 15:25:06 145.827
AO-7 27 Feb 15:23:57 15:31:55 48° 258° (WSW) 15:39:56 .
BEESAT 3 27 Feb 15:33:53 15:36:47 19° 250° (WSW) 15:39:39 437.485
STARS 27 Feb 15:39:16 15:39:26 10° 92° (E) 15:39:36 437.465
RS-15 27 Feb 15:54:16 16:05:34 56° 110° (ESE) 16:17:20 29.354- 29.394
NO-84 27 Feb 16:01:39 16:04:27 30° 319° (NW) 16:07:27 435.350 FM
CUBESAT XI-V 27 Feb 16:02:33 16:06:38 31° 97° (E) 16:10:41 437.345
XW-2F 27 Feb 16:17:58 16:19:19 12° 68° (ENE) 16:20:39 145.980 - 146.000
BEESAT 2 27 Feb 16:18:12 16:20:42 16° 251° (WSW) 16:23:12 435.950
XW-2D 27 Feb 16:23:20 16:25:31 15° 69° (ENE) 16:27:42 145.860 - 145.880
CUTE-I 27 Feb 16:27:35 16:31:37 22° 67° (ENE) 16:35:40 437.470
XW-2B 27 Feb 16:28:09 16:30:36 16° 70° (ENE) 16:33:02 145.730 - 145.750
MOZHAYETS 4 27 Feb 16:34:30 16:37:19 16° 293° (WNW) 16:40:07
XW-2C 27 Feb 16:36:22 16:39:17 21° 71° (ENE) 16:42:14 145.795 - 145.815
NUDT-PHONESAT 27 Feb 16:39:13 16:41:48 18° 70° (ENE) 16:44:24 437.300
KKS-1 27 Feb 16:45:04 16:49:23 49° 286° (WNW) 16:53:41 437.445
M-CUBED/EXP-1 PRIME 27 Feb 16:46:33 16:49:58 27° 103° (ESE) 16:53:35 437.505
LilacSat-2 27 Feb 16:55:16 16:58:52 38° 74° (ENE) 17:02:30 437.200
PCSat 27 Feb 17:02:04 17:03:49 11° 313° (NW) 17:05:35 145.827
STARS 27 Feb 17:11:42 17:16:03 57° 286° (WNW) 17:20:23 437.465
HO-68 27 Feb 17:12:23 17:16:54 18° 60° (ENE) 17:21:24 435.675
DOVE 4 27 Feb 17:12:37 17:16:43 72° 77° (ENE) 17:20:53 437.250
KAITUO 1B 27 Feb 17:40:01 17:43:47 64° 260° (W) 17:47:34 145.475/437.950
CUBESAT XI-V 27 Feb 17:40:24 17:43:46 21° 291° (WNW) 17:47:08 437.345
XW-2F 27 Feb 17:49:27 17:53:03 39° 262° (W) 17:56:41 145.980 - 146.000
XW-2D 27 Feb 17:56:00 17:59:24 30° 263° (W) 18:02:50 145.860 - 145.880
XW-2B 27 Feb 18:01:16 18:04:32 27° 263° (W) 18:07:51 145.730 - 145.750
CUTE-I 27 Feb 18:06:25 18:11:21 39° 261° (W) 18:16:20 437.470
RS-15 27 Feb 18:07:13 18:18:20 43° 311° (NW) 18:29:55 29.354- 29.394
XW-2C 27 Feb 18:10:27 18:13:21 21° 265° (W) 18:16:18 145.795 - 145.815
NUDT-PHONESAT 27 Feb 18:12:30 18:15:32 23° 264° (W) 18:18:36 437.300
CUTE 1.7 + AOD 2 27 Feb 18:17:36 18:21:33 37° 73° (ENE) 18:25:30 437.475
M-CUBED/EXP-1 PRIME 27 Feb 18:21:20 18:24:15 20° 293° (WNW) 18:27:20 437.505
LilacSat-2 27 Feb 18:32:07 18:33:17 11° 267° (W) 18:34:27 437.200
XW-2A 27 Feb 18:42:17 18:45:37 56° 260° (W) 18:48:59 145.665 - 145.685
AAUSAT CUBESAT 2 27 Feb 18:51:20 18:54:51 27° 72° (ENE) 18:58:23 437.432
HO-68 27 Feb 18:56:37 19:03:48 76° 256° (WSW) 19:11:00 435.675
AO-73 27 Feb 19:02:19 19:05:13 17° 68° (ENE) 19:08:10 145.935
CUBEBUG 2 27 Feb 19:03:30 19:07:50 56° 75° (ENE) 19:12:20 437.445
Oscar 11 27 Feb 19:05:57 19:08:34 16° 68° (ENE) 19:11:10 .
STRAND 1 27 Feb 19:08:51 19:14:00 71° 102° (ESE) 19:19:06 437.568
SEEDS 27 Feb 19:09:24 19:13:37 77° 258° (WSW) 19:17:51 437.485
JUGNU 27 Feb 19:29:40 19:33:09 16° 170° (S) 19:36:38 437.505
UWE-3 27 Feb 19:34:59 19:39:25 80° 78° (ENE) 19:44:01 435.000/436.395/437.385
ZACube-1 27 Feb 19:49:47 19:54:12 68° 76° (ENE) 19:58:44 437.345
CUTE 1.7 + AOD 2 27 Feb 19:55:07 19:57:28 14° 267° (W) 19:59:49 437.475
DELFI C3 27 Feb 20:00:23 20:03:06 18° 70° (ENE) 20:05:49 145.870
YUBILEINY 27 Feb 20:08:32 20:16:06 32° 74° (ENE) 20:23:34 435.215
AAUSAT CUBESAT 2 27 Feb 20:27:22 20:30:16 18° 265° (W) 20:33:11 437.432
RS-15 27 Feb 20:29:26 20:35:38 15° 342° (NNW) 20:41:54 29.354- 29.394
AO-73 27 Feb 20:37:00 20:41:06 36° 262° (W) 20:45:17 145.935
Oscar 11 27 Feb 20:40:18 20:44:20 37° 262° (W) 20:48:24 .
CUBEBUG 2 27 Feb 20:44:02 20:44:47 10° 270° (W) 20:45:33 437.445
PRISM 27 Feb 20:49:04 20:52:40 30° 98° (E) 20:56:18 437.425
STRAND 1 27 Feb 20:50:42 20:52:31 12° 297° (WNW) 20:54:18 437.568
SO-50 27 Feb 21:03:22 21:08:05 88° 304° (NW) 21:12:44 436.795
JUGNU 27 Feb 21:17:18 21:21:28 20° 180° (S) 21:25:39 437.505
LO-87 27 Feb 21:26:24 21:29:03 20° 71° (ENE) 21:31:42 145.935 - 145.965
ESTCUBE 1 27 Feb 21:30:38 21:33:03 14° 67° (ENE) 21:35:29 437.505/2401.250
DELFI C3 27 Feb 21:34:22 21:37:41 26° 263° (W) 21:41:01 145.870
O/OREOS (USA 219) 27 Feb 21:40:48 21:45:16 81° 106° (ESE) 21:49:46 437.305
TIGRISAT 27 Feb 21:49:50 21:54:29 63° 100° (E) 21:59:02 435.000
UNISAT 6 27 Feb 21:50:24 21:55:05 70° 101° (E) 21:59:40 437.425
YUBILEINY 27 Feb 22:04:49 22:13:00 47° 271° (W) 22:21:09 435.215
AIST 2D 27 Feb 22:21:26 22:23:34 15° 94° (E) 22:25:41 435.315
SRMSAT 27 Feb 22:22:13 22:26:06 18° 171° (S) 22:29:59 437.500
PRISM 27 Feb 22:25:05 22:27:42 17° 291° (WNW) 22:30:19 437.425
FO-29 27 Feb 22:27:00 22:34:26 71° 101° (E) 22:41:00 435.910
NANOSAT C BR1 27 Feb 22:31:49 22:33:28 12° 93° (E) 22:35:07 145.865
POLYITAN 1 27 Feb 22:34:25 22:36:51 15° 94° (E) 22:39:15 437.675
QB50P2 27 Feb 22:37:08 22:40:00 17° 95° (E) 22:42:50 145.880/145.840
NO-84 27 Feb 22:38:01 22:41:36 28° 41° (NE) 22:45:20 435.350 FM
SO-50 27 Feb 22:48:48 22:49:10 10° 315° (NW) 22:49:30 436.795
RS-15 27 Feb 22:49:20 22:56:04 16° 21° (NNE) 23:02:42 29.354- 29.394
LO-87 27 Feb 23:00:00 23:02:24 17° 265° (W) 23:04:49 145.935 - 145.965
DX 1 27 Feb 23:00:56 23:04:01 19° 69° (ENE) 23:07:06 434.975-435.025
SPROUT 27 Feb 23:04:06 23:08:03 39° 73° (ENE) 23:12:02 437.525
ESTCUBE 1 27 Feb 23:05:08 23:09:26 44° 261° (W) 23:13:45 437.505/2401.250
JUGNU 27 Feb 23:06:14 23:09:48 16° 190° (S) 23:13:21 437.505
UKube-1 27 Feb 23:07:37 23:10:15 16° 68° (ENE) 23:12:54 .
50 SAT 27 Feb 23:15:03 23:18:21 41° 75° (ENE) 23:21:40 437.505
VELOX 1 27 Feb 23:17:36 23:21:58 76° 76° (ENE) 23:26:21 145.980
TIGRISAT 27 Feb 23:29:10 23:30:32 11° 295° (WNW) 23:31:54 435.000
UNISAT 6 27 Feb 23:30:46 23:31:07 10° 296° (WNW) 23:31:28 437.425
DUCHIFAT 1 27 Feb 23:35:43 23:39:59 70° 101° (E) 23:44:12 145.980
EO-79 27 Feb 23:50:02 23:54:17 63° 284° (WNW) 23:58:30 145.935-145.965
AIST 2D 27 Feb 23:53:54 23:56:45 23° 288° (WNW) 23:59:35 435.315
NANOSAT C BR1 28 Feb 00:05:17 00:09:21 44° 286° (WNW) 00:13:24 145.865
PCSat 28 Feb 00:06:21 00:11:14 33° 57° (ENE) 00:16:06 145.827
POLYITAN 1 28 Feb 00:08:46 00:12:43 37° 287° (WNW) 00:16:39 437.675
SRMSAT 28 Feb 00:10:17 00:14:37 21° 181° (S) 00:18:57 437.500
QB50P2 28 Feb 00:12:00 00:15:48 31° 288° (WNW) 00:19:34 145.880/145.840
FO-29 28 Feb 00:13:32 00:18:31 20° 300° (WNW) 00:23:11 435.910
NO-84 28 Feb 00:15:28 00:19:18 33° 234° (SW) 00:23:15 435.350 FM
